Home   Weather   Comodoro Rivadavia   Past weeks

Flag for Argentina Past Weather in Comodoro Rivadavia, Chubut, Argentina — Yesterday and Last 2 Weeks

Now
55 °F

Scattered clouds.


Feels Like: 55 °F
Forecast: 53 / 67 °F
Wind: No wind

Location: Comodoro Rivadavia Aerodrome

Current Time: Jan 24, 2017 at 8:27:50 am

Latest Report: Jan 24, 2017 at 8:00 am


Visibility: N/A

Pressure: 30.01 "Hg

Humidity: 82%

Dew Point: 50 °F

Location of Comodoro RivadaviaLocation

Past Weather in Comodoro Rivadavia — Graph

°F

Comodoro Rivadavia Temperature Yesterday

Maximum temperature yesterday: 79 °F (at 5:10 pm)
Minimum temperature yesterday: 59 °F (at 9:00 pm)
Average temperature yesterday: 70 °F

High & Low Weather Summary for the Past Weeks

 TemperatureHumidityPressure
High90 °F (Jan 20, 5:00 pm)94% (Jan 24, 6:00 am)30.07 "Hg (Jan 24, 6:00 am)
Low52 °F (Jan 24, 6:00 am)15% (Jan 16, 5:00 pm)29.39 "Hg (Jan 12, 6:31 pm)
Average69 °F39%29.72 "Hg
* Reported Jan 9 7:00 am — Jan 24 7:00 am, Comodoro Rivadavia, Weather by CustomWeather, © 2017

Note: Actual official high and low records may vary slightly from our data, if they occured in-between our weather recording intervals... More about our weather records

Advertising

Comodoro Rivadavia Weather History for the Previous 24 Hours

Scroll right to see more
 ConditionsComfort  
Time TempWeatherWind HumidityBarometerVisibility
7:00 am
Tue, Jan 24
52 °FSunny.3 mph94%29.98 "Hg10 mi
6:00 am52 °FClear.3 mph94%29.95 "Hg10 mi
5:00 am54 °FClear.6 mph88%29.95 "Hg10 mi
4:00 am54 °FClear.7 mph88%29.92 "Hg10 mi
3:00 am55 °FClear.3 mph88%29.89 "Hg10 mi
2:00 am57 °FPassing clouds.6 mph82%29.86 "HgN/A
1:00 am57 °FPassing clouds.10 mph82%29.83 "HgN/A
12:00 am61 °FClear.15 mph68%29.77 "Hg10 mi
11:00 pm
Mon, Jan 23
59 °FClear.6 mph82%29.74 "Hg10 mi
10:00 pm59 °FPassing clouds.8 mph88%29.74 "HgN/A
9:00 pm59 °FPartly sunny.3 mph88%29.71 "HgN/A
8:00 pm61 °FLight rain. Partly sunny.8 mph83%29.68 "HgN/A
7:26 pm66 °FThunderstorms. Partly sunny.5 mph60%29.65 "HgN/A
6:00 pm66 °FLight rain. Broken clouds.6 mph64%29.62 "HgN/A
5:10 pm79 °FLight rain. Broken clouds.23 mph30%29.56 "HgN/A
4:00 pm77 °FPartly sunny.25 mph30%29.59 "HgN/A
3:00 pm75 °FSunny.28 mph29%29.59 "Hg10 mi
2:00 pm73 °FPartly sunny.28 mph29%29.59 "Hg4 mi
1:25 pm72 °FPartly sunny.30 mph33%29.56 "Hg5 mi
1:00 pm72 °FSunny.26 mph33%29.59 "Hg10 mi
12:00 pm72 °FDuststorm.28 mph36%29.62 "Hg3 mi
11:00 am72 °FDuststorm.30 mph38%29.59 "Hg3 mi
10:00 am72 °FPassing clouds.33 mph38%29.59 "Hg6 mi
9:00 am72 °FPartly sunny.29 mph41%29.62 "HgN/A
8:00 am70 °FSunny.32 mph40%29.62 "Hg10 mi
Weather by CustomWeather, © 2017

See weather overviewHow to use our weather pages